Location: Goettingen
(51.5300°N, 9.9433°E)
Time: 17:42:02
(UTC+02:00)

ISS - Pass Details

Date: 27 May 2020
Orbit: 417 x 420 km, 51.6° (Epoch: 26 May)

Event Time Altitude Azimuth Distance (km) Brightness Sun altitude
Rises 00:44:51 0° 279° (W) 2,368 0.3 -16.8°
Reaches altitude 10° 00:47:55 10° 248° (WSW) 1,499 -1.1 -16.9°
Enters shadow 00:48:01 10° 247° (WSW) 1,481 -1.1 -16.9°
